TimeCDT,TemperatureF,Dew PointF,Humidity,Sea Level PressureIn,VisibilityMPH,Wind Direction,Wind SpeedMPH,Gust SpeedMPH,PrecipitationIn,Events,Conditions,WindDirDegrees,DateUTC
12:15 AM,82.4,71.6,70,30.02,10.0,SE,8.1,-,N/A,,Clear,140,2012-10-15 05:15:00
12:35 AM,82.4,71.6,70,30.02,10.0,SSE,11.5,-,N/A,,Clear,150,2012-10-15 05:35:00
12:55 AM,82.4,71.6,70,30.01,-9999.0,SSE,11.5,-,N/A,,Clear,160,2012-10-15 05:55:00
1:15 AM,82.4,71.6,70,30.01,10.0,SE,12.7,-,N/A,,Clear,140,2012-10-15 06:15:00
1:35 AM,82.4,71.6,70,30.01,10.0,SSE,11.5,-,N/A,,Clear,150,2012-10-15 06:35:00
1:55 AM,82.4,71.6,70,30.01,10.0,SSE,11.5,-,N/A,,Clear,160,2012-10-15 06:55:00
2:15 AM,80.6,71.6,74,30.01,10.0,South,12.7,-,N/A,,Partly Cloudy,170,2012-10-15 07:15:00
2:35 AM,82.4,71.6,70,30.01,10.0,South,10.4,-,N/A,,Partly Cloudy,180,2012-10-15 07:35:00
2:55 AM,80.6,71.6,74,30.00,10.0,South,10.4,-,N/A,,Partly Cloudy,190,2012-10-15 07:55:00
3:15 AM,80.6,71.6,74,30.00,10.0,South,9.2,-,N/A,,Clear,190,2012-10-15 08:15:00
3:35 AM,80.6,71.6,74,30.00,10.0,SSW,10.4,-,N/A,,Scattered Clouds,210,2012-10-15 08:35:00
3:55 AM,80.6,71.6,74,29.99,10.0,South,8.1,-,N/A,,Partly Cloudy,190,2012-10-15 08:55:00
4:15 AM,80.6,71.6,74,29.99,10.0,SSW,5.8,-,N/A,,Clear,200,2012-10-15 09:15:00
4:35 AM,80.6,71.6,74,30.00,10.0,South,4.6,-,N/A,,Partly Cloudy,190,2012-10-15 09:35:00
4:55 AM,80.6,71.6,74,30.00,10.0,Calm,Calm,-,N/A,,Partly Cloudy,0,2012-10-15 09:55:00
5:15 AM,80.6,71.6,74,30.00,10.0,SW,4.6,-,N/A,,Mostly Cloudy,220,2012-10-15 10:15:00
5:35 AM,80.6,73.4,79,30.00,10.0,West,3.5,-,N/A,,Partly Cloudy,280,2012-10-15 10:35:00
5:55 AM,80.6,73.4,79,30.00,10.0,NW,3.5,-,N/A,,Mostly Cloudy,310,2012-10-15 10:55:00
6:15 AM,80.6,73.4,79,30.00,10.0,Calm,Calm,-,N/A,,Overcast,0,2012-10-15 11:15:00
6:35 AM,80.6,73.4,79,30.00,10.0,NNW,4.6,-,N/A,,Mostly Cloudy,330,2012-10-15 11:35:00
7:35 AM,80.6,73.4,79,30.01,9.0,NNW,4.6,-,N/A,,Clear,340,2012-10-15 12:35:00
7:55 AM,80.6,73.4,79,30.02,9.0,NNW,4.6,-,N/A,,Clear,330,2012-10-15 12:55:00
8:35 AM,80.6,73.4,79,30.02,9.0,NNW,5.8,-,N/A,,Clear,340,2012-10-15 13:35:00
8:55 AM,80.6,75.2,84,30.03,9.0,NNW,5.8,-,N/A,,Clear,340,2012-10-15 13:55:00
9:15 AM,80.6,73.4,79,30.04,9.0,NNW,3.5,-,N/A,,Clear,340,2012-10-15 14:15:00
9:55 AM,82.4,73.4,74,30.05,10.0,Calm,Calm,-,N/A,,Clear,0,2012-10-15 14:55:00
10:15 AM,82.4,73.4,74,30.05,9.0,Variable,4.6,-,N/A,,Partly Cloudy,0,2012-10-15 15:15:00
10:35 AM,82.4,73.4,74,30.05,10.0,NNW,4.6,-,N/A,,Mostly Cloudy,340,2012-10-15 15:35:00
10:55 AM,82.4,73.4,74,30.05,10.0,NNW,5.8,-,N/A,,Scattered Clouds,340,2012-10-15 15:55:00
11:35 AM,82.4,73.4,74,30.05,10.0,NNW,5.8,-,N/A,,Clear,340,2012-10-15 16:35:00
11:55 AM,82.4,73.4,74,30.05,10.0,NNW,4.6,-,N/A,,Clear,340,2012-10-15 16:55:00
12:15 PM,82.4,73.4,74,30.04,10.0,North,3.5,-,N/A,,Clear,350,2012-10-15 17:15:00
12:35 PM,82.4,73.4,74,30.04,10.0,Calm,Calm,-,N/A,,Clear,0,2012-10-15 17:35:00
1:55 PM,82.4,73.4,74,30.00,10.0,North,3.5,-,N/A,,Partly Cloudy,350,2012-10-15 18:55:00
2:15 PM,82.4,71.6,70,29.99,10.0,North,5.8,-,N/A,,Clear,360,2012-10-15 19:15:00
2:35 PM,82.4,73.4,74,29.98,10.0,North,3.5,-,N/A,,Clear,360,2012-10-15 19:35:00
2:55 PM,80.6,71.6,74,29.97,10.0,North,4.6,-,N/A,,Clear,360,2012-10-15 19:55:00
3:15 PM,80.6,71.6,74,29.96,10.0,North,5.8,-,N/A,,Clear,10,2012-10-15 20:15:00
3:35 PM,80.6,73.4,79,29.96,10.0,North,5.8,-,N/A,,Clear,10,2012-10-15 20:35:00
3:55 PM,80.6,71.6,74,29.95,10.0,Variable,4.6,-,N/A,,Clear,0,2012-10-15 20:55:00
4:15 PM,80.6,71.6,74,29.94,10.0,NNE,5.8,-,N/A,,Clear,20,2012-10-15 21:15:00
4:35 PM,80.6,73.4,79,29.94,10.0,Variable,5.8,-,N/A,,Clear,0,2012-10-15 21:35:00
4:55 PM,80.6,71.6,74,29.94,10.0,North,6.9,-,N/A,,Clear,10,2012-10-15 21:55:00
5:15 PM,80.6,71.6,74,29.93,10.0,Variable,4.6,-,N/A,,Clear,0,2012-10-15 22:15:00
5:35 PM,80.6,71.6,74,29.94,10.0,NNE,5.8,-,N/A,,Clear,20,2012-10-15 22:35:00
6:15 PM,78.8,71.6,78,29.94,10.0,NNE,4.6,-,N/A,,Clear,20,2012-10-15 23:15:00
6:35 PM,78.8,71.6,78,29.94,10.0,NNE,5.8,-,N/A,,Clear,20,2012-10-15 23:35:00
6:55 PM,78.8,71.6,78,29.94,10.0,NNE,8.1,-,N/A,,Clear,30,2012-10-15 23:55:00
7:15 PM,80.6,71.6,74,29.95,10.0,NNE,6.9,-,N/A,,Clear,20,2012-10-16 00:15:00
7:35 PM,80.6,71.6,74,29.95,10.0,NE,10.4,-,N/A,,Clear,40,2012-10-16 00:35:00
7:55 PM,80.6,71.6,74,29.96,10.0,NNE,8.1,-,N/A,,Clear,30,2012-10-16 00:55:00
8:15 PM,80.6,71.6,74,29.96,10.0,NE,8.1,-,N/A,,Clear,40,2012-10-16 01:15:00
8:35 PM,80.6,71.6,74,29.97,10.0,NE,5.8,-,N/A,,Clear,40,2012-10-16 01:35:00
8:55 PM,80.6,71.6,74,29.97,10.0,NNE,9.2,-,N/A,,Clear,30,2012-10-16 01:55:00
9:15 PM,80.6,71.6,74,29.98,10.0,NE,9.2,-,N/A,,Clear,40,2012-10-16 02:15:00
9:35 PM,80.6,71.6,74,29.97,10.0,NNE,9.2,-,N/A,,Clear,30,2012-10-16 02:35:00
9:55 PM,80.6,71.6,74,29.97,10.0,NE,11.5,-,N/A,,Clear,40,2012-10-16 02:55:00
10:15 PM,80.6,73.4,79,29.97,10.0,NE,11.5,-,N/A,,Clear,50,2012-10-16 03:15:00
10:35 PM,80.6,71.6,74,29.97,10.0,NE,11.5,-,N/A,,Clear,40,2012-10-16 03:35:00
10:55 PM,80.6,73.4,79,29.97,10.0,NE,10.4,-,N/A,,Clear,50,2012-10-16 03:55:00
11:15 PM,80.6,71.6,74,29.96,10.0,NE,10.4,-,N/A,,Clear,50,2012-10-16 04:15:00
11:35 PM,80.6,73.4,79,29.96,10.0,NE,9.2,-,N/A,,Clear,50,2012-10-16 04:35:00
11:55 PM,80.6,71.6,74,29.96,10.0,NE,9.2,-,N/A,,Partly Cloudy,50,2012-10-16 04:55:00